QPF
0.01 0.01 0.01 0.02 0.02 0.04 0.06 0.06 0.05 0.05 0.07 0.07 0.07 0.06 0.07 0.06 0.05 0.03 0.01 0.00 0.00 0.00 0.00 0.00 0.00 0.00 0.00 0.00 0.00 0.01 0.01 0.00 0.00 0.00 0.00 0.00 0.00 0.00 0.00 0.00 0.00 0.00 0.00 0.00
0.03 0.03 0.04 0.05 0.04 0.04 0.06 0.07 0.07 0.06 0.05 0.03 0.04 0.07 0.09 0.09 0.07 0.05 0.02 0.01 0.00 0.00 0.00 0.00 0.00 0.00 0.01 0.01 0.01 0.01 0.01 0.01 0.01 0.01 0.01 0.01 0.01 0.00 0.00 0.00 0.00 0.00 0.00 0.00
0.02 0.05 0.07 0.08 0.05 0.05 0.07 0.06 0.07 0.07 0.05 0.03 0.03 0.04 0.04 0.05 0.06 0.06 0.03 0.01 0.00 0.00 0.00 0.00 0.00 0.01 0.01 0.01 0.01 0.01 0.01 0.01 0.01 0.02 0.02 0.02 0.01 0.01 0.01 0.00 0.00 0.00 0.00 0.00
0.02 0.06 0.08 0.06 0.01 0.01 0.03 0.03 0.02 0.03 0.02 0.02 0.03 0.03 0.02 0.01 0.01 0.02 0.02 0.01 0.01 0.01 0.00 0.00 0.00 0.01 0.01 0.01 0.02 0.02 0.02 0.02 0.02 0.02 0.03 0.02 0.03 0.02 0.01 0.00 0.00 0.00 0.00 0.00
0.02 0.04 0.03 0.01 0.00 0.00 0.02 0.02 0.00 0.01 0.01 0.01 0.00 0.01 0.01 0.00 0.00 0.00 0.00 0.00 0.00 0.01 0.01 0.01 0.01 0.01 0.01 0.02 0.02 0.03 0.03 0.03 0.03 0.03 0.04 0.05 0.07 0.06 0.03 0.01 0.01 0.00 0.00 0.01
0.01 0.01 0.01 0.01 0.00 0.00 0.01 0.03 0.00 0.00 0.01 0.01 0.00 0.01 0.01 0.00 0.00 0.00 0.00 0.00 0.01 0.01 0.01 0.01 0.01 0.01 0.02 0.03 0.03 0.04 0.04 0.05 0.05 0.05 0.05 0.06 0.07 0.06 0.05 0.03 0.02 0.01 0.02 0.01
0.00 0.00 0.00 0.00 0.00 0.01 0.02 0.02 0.00 0.00 0.00 0.00 0.01 0.01 0.00 0.00 0.00 0.00 0.00 0.00 0.01 0.01 0.02 0.01 0.01 0.02 0.03 0.03 0.03 0.04 0.04 0.05 0.06 0.05 0.04 0.05 0.06 0.07 0.05 0.04 0.04 0.03 0.02 0.02
0.00 0.00 0.00 0.00 0.00 0.01 0.01 0.00 0.00 0.00 0.00 0.00 0.00 0.00 0.00 0.00 0.00 0.00 0.01 0.01 0.01 0.01 0.02 0.02 0.02 0.03 0.04 0.04 0.04 0.04 0.04 0.04 0.05 0.04 0.04 0.05 0.07 0.07 0.06 0.06 0.07 0.06 0.04 0.04
0.00 0.00 0.00 0.00 0.00 0.00 0.00 0.00 0.00 0.00 0.00 0.00 0.00 0.00 0.00 0.00 0.00 0.00 0.01 0.01 0.01 0.01 0.02 0.02 0.02 0.03 0.04 0.04 0.04 0.06 0.06 0.06 0.05 0.06 0.05 0.06 0.06 0.07 0.07 0.07 0.08 0.08 0.06 0.05
0.00 0.00 0.00 0.00 0.00 0.00 0.00 0.00 0.00 0.00 0.00 0.00 0.00 0.00 0.00 0.00 0.00 0.00 0.01 0.01 0.01 0.01 0.02 0.02 0.02 0.03 0.03 0.03 0.04 0.06 0.06 0.05 0.05 0.07 0.09 0.08 0.08 0.10 0.10 0.10 0.09 0.09 0.09 0.07
0.00 0.00 0.00 0.00 0.00 0.00 0.00 0.00 0.00 0.00 0.00 0.00 0.00 0.00 0.00 0.00 0.00 0.00 0.00 0.00 0.01 0.01 0.01 0.01 0.02 0.02 0.02 0.02 0.02 0.03 0.04 0.05 0.05 0.06 0.10 0.11 0.09 0.09 0.12 0.13 0.12 0.10 0.09 0.07
0.00 0.00 0.00 0.00 0.00 0.00 0.00 0.00 0.00 0.00 0.00 0.00 0.00 0.00 0.00 0.00 0.00 0.00 0.00 0.00 0.00 0.00 0.00 0.00 0.01 0.01 0.01 0.01 0.02 0.03 0.04 0.04 0.05 0.05 0.06 0.08 0.08 0.08 0.07 0.08 0.08 0.06 0.05 0.04
0.00 0.00 0.00 0.00 0.00 0.00 0.00 0.00 0.00 0.00 0.00 0.00 0.00 0.00 0.00 0.00 0.00 0.00 0.00 0.00 0.00 0.00 0.00 0.00 0.00 0.00 0.00 0.00 0.01 0.01 0.02 0.02 0.03 0.04 0.05 0.05 0.06 0.06 0.05 0.03 0.02 0.02 0.02 0.01
0.00 0.00 0.00 0.00 0.00 0.00 0.00 0.00 0.00 0.00 0.00 0.00 0.00 0.00 0.00 0.00 0.00 0.00 0.00 0.00 0.00 0.00 0.00 0.00 0.00 0.00 0.00 0.00 0.00 0.00 0.00 0.00 0.01 0.01 0.02 0.02 0.02 0.02 0.02 0.02 0.01 0.01 0.00 0.00
0.00 0.00 0.00 0.00 0.00 0.00 0.00 0.00 0.00 0.00 0.00 0.00 0.00 0.00 0.00 0.00 0.00 0.00 0.00 0.00 0.00 0.00 0.00 0.00 0.00 0.00 0.00 0.00 0.00 0.00 0.00 0.00 0.00 0.00 0.00 0.00 0.00 0.00 0.01 0.01 0.01 0.00 0.00 0.00
0.00 0.00 0.00 0.00 0.00 0.00 0.00 0.00 0.00 0.00 0.00 0.00 0.00 0.00 0.00 0.00 0.00 0.00 0.00 0.00 0.00 0.00 0.00 0.00 0.00 0.00 0.00 0.00 0.00 0.00 0.00 0.00 0.00 0.00 0.00 0.00 0.00 0.00 0.00 0.00 0.00 0.00 0.00 0.00
0.00 0.00 0.00 0.00 0.00 0.00 0.00 0.00 0.00 0.00 0.00 0.00 0.00 0.00 0.00 0.00 0.00 0.00 0.00 0.00 0.00 0.00 0.00 0.00 0.00 0.00 0.00 0.00 0.00 0.00 0.00 0.00 0.00 0.00 0.00 0.00 0.00 0.00 0.00 0.00 0.00 0.00 0.00 0.00
0.00 0.00 0.00 0.00 0.00 0.00 0.00 0.00 0.00 0.00 0.00 0.00 0.00 0.00 0.00 0.00 0.00 0.00 0.00 0.00 0.00 0.00 0.00 0.00 0.00 0.00 0.00 0.00 0.00 0.00 0.00 0.00 0.00 0.00 0.00 0.00 0.00 0.00 0.00 0.00 0.00 0.00 0.00 0.00
0.00 0.00 0.00 0.00 0.00 0.00 0.00 0.00 0.00 0.00 0.00 0.00 0.00 0.00 0.00 0.00 0.00 0.00 0.00 0.00 0.00 0.00 0.00 0.00 0.00 0.00 0.00 0.00 0.00 0.00 0.00 0.00 0.00 0.00 0.00 0.00 0.00 0.00 0.00 0.00 0.00 0.00 0.00 0.00
0.00 0.00 0.00 0.00 0.00 0.00 0.00 0.00 0.00 0.00 0.00 0.00 0.00 0.00 0.00 0.00 0.00 0.00 0.00 0.00 0.00 0.00 0.00 0.00 0.00 0.00 0.00 0.00 0.00 0.00 0.00 0.00 0.00 0.00 0.00 0.00 0.00 0.00 0.00 0.00 0.00 0.00 0.00 0.00
0.00 0.00 0.00 0.00 0.00 0.00 0.00 0.00 0.00 0.00 0.00 0.00 0.00 0.00 0.00 0.00 0.00 0.00 0.00 0.00 0.00 0.00 0.00 0.00 0.00 0.00 0.00 0.00 0.00 0.00 0.00 0.00 0.00 0.00 0.00 0.00 0.00 0.00 0.00 0.00 0.00 0.00 0.00 0.00
0.00 0.00 0.00 0.00 0.00 0.00 0.00 0.00 0.00 0.00 0.00 0.00 0.00 0.00 0.00 0.00 0.00 0.00 0.00 0.00 0.00 0.00 0.00 0.00 0.00 0.00 0.00 0.00 0.00 0.00 0.00 0.00 0.00 0.00 0.00 0.00 0.00 0.00 0.00 0.00 0.00 0.00 0.00 0.00
0.00 0.00 0.00 0.00 0.00 0.00 0.00 0.00 0.00 0.00 0.00 0.00 0.00 0.00 0.00 0.00 0.00 0.00 0.00 0.00 0.00 0.00 0.00 0.00 0.00 0.00 0.00 0.00 0.00 0.00 0.00 0.00 0.00 0.00 0.00 0.00 0.00 0.00 0.00 0.00 0.00 0.00 0.00 0.00
0.00 0.00 0.00 0.00 0.00 0.00 0.00 0.00 0.00 0.00 0.00 0.00 0.00 0.00 0.00 0.00 0.00 0.00 0.00 0.00 0.00 0.00 0.00 0.00 0.00 0.00 0.00 0.00 0.00 0.00 0.00 0.00 0.00 0.00 0.00 0.00 0.00 0.00 0.00 0.00 0.00 0.00 0.00 0.00
0.00 0.00 0.00 0.00 0.00 0.00 0.00 0.00 0.00 0.00 0.00 0.00 0.00 0.00 0.00 0.00 0.00 0.00 0.00 0.00 0.00 0.00 0.00 0.00 0.00 0.00 0.00 0.00 0.00 0.00 0.00 0.00 0.00 0.00 0.00 0.00 0.00 0.00 0.00 0.00 0.00 0.00 0.00 0.00
0.01 0.02 0.02 0.01 0.00 0.00 0.00 0.00 0.00 0.00 0.00 0.00 0.00 0.00 0.00 0.00 0.00 0.00 0.00 0.00 0.00 0.00 0.00 0.00 0.00 0.00 0.00 0.00 0.00 0.00 0.00 0.00 0.00 0.00 0.00 0.00 0.00 0.00 0.00 0.00 0.00 0.00 0.00 0.00
0.02 0.03 0.03 0.03 0.02 0.01 0.00 0.00 0.00 0.00 0.00 0.00 0.00 0.00 0.00 0.00 0.00 0.00 0.00 0.00 0.00 0.00 0.00 0.00 0.00 0.00 0.00 0.00 0.00 0.00 0.00 0.00 0.00 0.00 0.00 0.00 0.00 0.00 0.00 0.00 0.00 0.00 0.00 0.00
MSLP
1013.91 1013.82 1013.69 1013.55 1013.41 1013.31 1013.28 1013.35 1013.53 1013.84 1014.27 1014.80 1015.38 1015.97 1016.52 1016.97 1017.28 1017.42 1017.40 1017.22 1016.92 1016.55 1016.15 1015.79 1015.49 1015.28 1015.17 1015.15 1015.19 1015.27 1015.37 1015.46 1015.52 1015.57 1015.59 1015.61 1015.62 1015.62 1015.62 1015.60 1015.57 1015.50 1015.38 1015.23
1014.17 1014.03 1013.83 1013.60 1013.36 1013.16 1013.04 1013.04 1013.18 1013.48 1013.92 1014.48 1015.11 1015.76 1016.35 1016.84 1017.19 1017.35 1017.35 1017.18 1016.89 1016.54 1016.17 1015.83 1015.56 1015.39 1015.32 1015.33 1015.40 1015.51 1015.63 1015.74 1015.82 1015.87 1015.90 1015.90 1015.89 1015.87 1015.84 1015.79 1015.73 1015.63 1015.50 1015.33
1014.34 1014.19 1013.96 1013.67 1013.36 1013.09 1012.90 1012.84 1012.94 1013.21 1013.64 1014.20 1014.84 1015.50 1016.12 1016.63 1016.99 1017.18 1017.20 1017.06 1016.80 1016.48 1016.15 1015.86 1015.63 1015.50 1015.46 1015.51 1015.61 1015.74 1015.88 1015.99 1016.08 1016.13 1016.15 1016.15 1016.13 1016.08 1016.03 1015.95 1015.85 1015.73 1015.57 1015.40
1014.42 1014.28 1014.04 1013.74 1013.40 1013.09 1012.86 1012.75 1012.81 1013.03 1013.43 1013.96 1014.58 1015.22 1015.83 1016.34 1016.71 1016.92 1016.96 1016.86 1016.65 1016.38 1016.11 1015.87 1015.71 1015.62 1015.62 1015.70 1015.82 1015.96 1016.11 1016.22 1016.31 1016.36 1016.38 1016.37 1016.33 1016.28 1016.20 1016.11 1015.99 1015.84 1015.66 1015.47
1014.37 1014.26 1014.05 1013.76 1013.43 1013.12 1012.87 1012.73 1012.75 1012.93 1013.27 1013.75 1014.32 1014.92 1015.49 1015.98 1016.35 1016.57 1016.65 1016.60 1016.45 1016.26 1016.06 1015.89 1015.79 1015.76 1015.80 1015.90 1016.03 1016.18 1016.32 1016.43 1016.52 1016.56 1016.58 1016.56 1016.53 1016.48 1016.40 1016.30 1016.17 1016.01 1015.82 1015.61
1014.19 1014.11 1013.93 1013.69 1013.40 1013.11 1012.87 1012.73 1012.72 1012.86 1013.14 1013.56 1014.06 1014.60 1015.12 1015.58 1015.94 1016.18 1016.29 1016.30 1016.23 1016.12 1016.00 1015.92 1015.88 1015.91 1015.99 1016.11 1016.25 1016.40 1016.53 1016.63 1016.70 1016.74 1016.76 1016.76 1016.74 1016.70 1016.64 1016.56 1016.45 1016.29 1016.10 1015.89
1013.85 1013.80 1013.67 1013.48 1013.25 1013.01 1012.80 1012.68 1012.66 1012.77 1013.01 1013.37 1013.80 1014.28 1014.75 1015.17 1015.52 1015.77 1015.93 1015.99 1016.00 1015.98 1015.95 1015.95 1015.99 1016.07 1016.18 1016.32 1016.46 1016.60 1016.71 1016.80 1016.86 1016.90 1016.93 1016.94 1016.95 1016.95 1016.93 1016.88 1016.81 1016.68 1016.52 1016.31
1013.38 1013.34 1013.26 1013.12 1012.95 1012.78 1012.64 1012.55 1012.56 1012.66 1012.88 1013.19 1013.57 1013.99 1014.41 1014.80 1015.13 1015.40 1015.59 1015.72 1015.80 1015.86 1015.92 1016.00 1016.09 1016.22 1016.36 1016.51 1016.65 1016.77 1016.87 1016.94 1016.99 1017.03 1017.06 1017.10 1017.14 1017.18 1017.22 1017.24 1017.21 1017.15 1017.03 1016.85
1012.76 1012.73 1012.68 1012.61 1012.51 1012.42 1012.36 1012.34 1012.38 1012.51 1012.72 1013.01 1013.36 1013.74 1014.13 1014.49 1014.82 1015.09 1015.32 1015.50 1015.64 1015.77 1015.90 1016.04 1016.19 1016.35 1016.51 1016.66 1016.79 1016.89 1016.96 1017.01 1017.05 1017.08 1017.13 1017.19 1017.27 1017.36 1017.46 1017.54 1017.60 1017.60 1017.54 1017.42
1012.02 1011.99 1011.97 1011.95 1011.94 1011.93 1011.96 1012.02 1012.14 1012.32 1012.56 1012.86 1013.20 1013.56 1013.93 1014.28 1014.60 1014.88 1015.13 1015.34 1015.53 1015.72 1015.89 1016.08 1016.26 1016.44 1016.60 1016.75 1016.86 1016.94 1016.98 1017.01 1017.03 1017.05 1017.10 1017.18 1017.29 1017.43 1017.59 1017.74 1017.86 1017.94 1017.95 1017.90
1011.18 1011.14 1011.14 1011.17 1011.24 1011.33 1011.46 1011.62 1011.83 1012.08 1012.37 1012.70 1013.06 1013.43 1013.79 1014.14 1014.46 1014.75 1015.00 1015.24 1015.46 1015.67 1015.87 1016.08 1016.27 1016.46 1016.62 1016.75 1016.84 1016.89 1016.91 1016.92 1016.91 1016.92 1016.96 1017.05 1017.18 1017.35 1017.54 1017.75 1017.94 1018.08 1018.17 1018.18
1010.23 1010.19 1010.22 1010.30 1010.44 1010.63 1010.85 1011.12 1011.42 1011.76 1012.13 1012.52 1012.91 1013.31 1013.68 1014.03 1014.35 1014.65 1014.91 1015.15 1015.37 1015.59 1015.81 1016.01 1016.21 1016.39 1016.54 1016.65 1016.73 1016.76 1016.75 1016.73 1016.70 1016.69 1016.72 1016.80 1016.93 1017.11 1017.33 1017.56 1017.79 1017.99 1018.13 1018.20
1009.22 1009.18 1009.23 1009.36 1009.57 1009.83 1010.15 1010.51 1010.91 1011.34 1011.79 1012.24 1012.69 1013.12 1013.52 1013.89 1014.22 1014.51 1014.77 1015.01 1015.23 1015.45 1015.66 1015.86 1016.05 1016.22 1016.36 1016.46 1016.52 1016.54 1016.52 1016.48 1016.43 1016.40 1016.41 1016.47 1016.58 1016.75 1016.97 1017.21 1017.45 1017.67 1017.85 1017.96
1008.19 1008.15 1008.22 1008.39 1008.64 1008.96 1009.35 1009.79 1010.27 1010.78 1011.30 1011.82 1012.33 1012.80 1013.24 1013.63 1013.97 1014.27 1014.53 1014.77 1014.98 1015.19 1015.39 1015.59 1015.77 1015.94 1016.08 1016.18 1016.24 1016.26 1016.24 1016.19 1016.14 1016.09 1016.08 1016.12 1016.21 1016.35 1016.55 1016.77 1017.01 1017.23 1017.42 1017.55
1007.18 1007.16 1007.23 1007.41 1007.68 1008.04 1008.47 1008.96 1009.49 1010.06 1010.64 1011.22 1011.78 1012.30 1012.77 1013.19 1013.55 1013.87 1014.14 1014.37 1014.59 1014.79 1014.99 1015.19 1015.38 1015.55 1015.70 1015.82 1015.89 1015.93 1015.92 1015.89 1015.84 1015.80 1015.78 1015.80 1015.86 1015.98 1016.14 1016.34 1016.55 1016.75 1016.93 1017.07
1006.29 1006.25 1006.32 1006.48 1006.74 1007.09 1007.53 1008.03 1008.59 1009.19 1009.81 1010.43 1011.03 1011.59 1012.10 1012.55 1012.94 1013.28 1013.56 1013.81 1014.03 1014.25 1014.45 1014.66 1014.86 1015.06 1015.24 1015.38 1015.49 1015.56 1015.60 1015.59 1015.57 1015.54 1015.52 1015.54 1015.58 1015.68 1015.81 1015.97 1016.16 1016.34 1016.50 1016.63
1005.57 1005.51 1005.54 1005.66 1005.87 1006.18 1006.58 1007.06 1007.60 1008.20 1008.83 1009.47 1010.09 1010.69 1011.23 1011.72 1012.14 1012.50 1012.81 1013.08 1013.33 1013.56 1013.78 1014.01 1014.24 1014.47 1014.69 1014.88 1015.04 1015.16 1015.24 1015.28 1015.30 1015.30 1015.30 1015.32 1015.37 1015.45 1015.57 1015.71 1015.87 1016.03 1016.18 1016.30
1005.06 1004.96 1004.93 1004.98 1005.12 1005.35 1005.68 1006.09 1006.59 1007.16 1007.77 1008.41 1009.04 1009.65 1010.22 1010.74 1011.19 1011.58 1011.92 1012.22 1012.49 1012.75 1013.00 1013.26 1013.53 1013.80 1014.06 1014.30 1014.52 1014.70 1014.83 1014.93 1014.99 1015.04 1015.07 1015.11 1015.17 1015.26 1015.37 1015.51 1015.67 1015.83 1015.97 1016.09
1004.78 1004.63 1004.52 1004.48 1004.52 1004.65 1004.88 1005.21 1005.64 1006.14 1006.72 1007.33 1007.95 1008.56 1009.14 1009.67 1010.15 1010.56 1010.93 1011.25 1011.55 1011.84 1012.13 1012.42 1012.73 1013.04 1013.34 1013.64 1013.90 1014.13 1014.33 1014.48 1014.59 1014.68 1014.76 1014.83 1014.92 1015.03 1015.16 1015.31 1015.48 1015.65 1015.81 1015.95
1004.68 1004.46 1004.27 1004.13 1004.06 1004.09 1004.21 1004.44 1004.78 1005.22 1005.73 1006.30 1006.89 1007.49 1008.06 1008.59 1009.07 1009.50 1009.88 1010.23 1010.55 1010.87 1011.18 1011.51 1011.85 1012.19 1012.54 1012.87 1013.18 1013.46 1013.70 1013.89 1014.05 1014.18 1014.29 1014.41 1014.52 1014.66 1014.82 1015.01 1015.21 1015.41 1015.61 1015.78
1004.65 1004.37 1004.11 1003.88 1003.72 1003.64 1003.67 1003.81 1004.06 1004.42 1004.87 1005.37 1005.92 1006.48 1007.03 1007.54 1008.01 1008.44 1008.82 1009.17 1009.51 1009.84 1010.18 1010.52 1010.89 1011.26 1011.64 1012.01 1012.35 1012.66 1012.93 1013.16 1013.35 1013.51 1013.66 1013.80 1013.95 1014.12 1014.31 1014.53 1014.77 1015.02 1015.26 1015.49
1004.59 1004.27 1003.95 1003.66 1003.43 1003.28 1003.22 1003.29 1003.46 1003.75 1004.12 1004.57 1005.06 1005.57 1006.07 1006.54 1006.98 1007.39 1007.76 1008.10 1008.44 1008.77 1009.12 1009.49 1009.87 1010.27 1010.67 1011.06 1011.43 1011.76 1012.05 1012.30 1012.51 1012.69 1012.86 1013.02 1013.19 1013.39 1013.61 1013.87 1014.15 1014.45 1014.75 1015.03
1004.40 1004.06 1003.72 1003.39 1003.11 1002.92 1002.82 1002.83 1002.95 1003.17 1003.49 1003.87 1004.30 1004.74 1005.19 1005.61 1006.00 1006.36 1006.70 1007.03 1007.35 1007.68 1008.04 1008.42 1008.82 1009.23 1009.66 1010.07 1010.45 1010.81 1011.11 1011.38 1011.60 1011.78 1011.96 1012.13 1012.31 1012.53 1012.77 1013.06 1013.38 1013.72 1014.07 1014.40
1004.01 1003.67 1003.33 1003.00 1002.72 1002.51 1002.39 1002.38 1002.47 1002.66 1002.92 1003.25 1003.62 1003.99 1004.37 1004.73 1005.06 1005.37 1005.67 1005.97 1006.27 1006.60 1006.95 1007.34 1007.76 1008.20 1008.65 1009.08 1009.49 1009.86 1010.19 1010.46 1010.69 1010.88 1011.05 1011.22 1011.41 1011.63 1011.89 1012.19 1012.54 1012.91 1013.30 1013.69
1003.40 1003.08 1002.76 1002.45 1002.20 1002.01 1001.91 1001.90 1001.99 1002.16 1002.39 1002.67 1002.98 1003.30 1003.61 1003.90 1004.17 1004.43 1004.68 1004.94 1005.23 1005.55 1005.91 1006.31 1006.75 1007.22 1007.70 1008.17 1008.60 1009.00 1009.35 1009.63 1009.87 1010.07 1010.24 1010.41 1010.60 1010.81 1011.07 1011.38 1011.74 1012.13 1012.55 1012.97
1002.62 1002.32 1002.03 1001.76 1001.55 1001.41 1001.35 1001.37 1001.47 1001.64 1001.86 1002.11 1002.38 1002.64 1002.89 1003.13 1003.34 1003.55 1003.76 1003.99 1004.26 1004.58 1004.95 1005.37 1005.84 1006.34 1006.85 1007.36 1007.84 1008.27 1008.65 1008.96 1009.22 1009.43 1009.60 1009.77 1009.95 1010.16 1010.42 1010.72 1011.08 1011.48 1011.91 1012.35
1001.71 1001.44 1001.18 1000.97 1000.81 1000.72 1000.71 1000.77 1000.91 1001.09 1001.32 1001.56 1001.80 1002.03 1002.24 1002.43 1002.60 1002.77 1002.95 1003.16 1003.42 1003.74 1004.12 1004.56 1005.06 1005.60 1006.16 1006.70 1007.23 1007.70 1008.11 1008.46 1008.75 1008.98 1009.17 1009.35 1009.53 1009.73 1009.98 1010.28 1010.63 1011.02 1011.46 1011.91
Thickness
5631 5631 5626 5624 5627 5631 5631 5632 5630 5636 5636 5627 5619 5614 5608 5606 5607 5609 5613 5617 5620 5623 5626 5630 5633 5635 5637 5638 5639 5641 5642 5641 5641 5641 5640 5639 5639 5639 5639 5639 5640 5640 5642 5644
5622 5626 5621 5618 5623 5624 5625 5627 5629 5630 5622 5616 5608 5604 5599 5597 5597 5600 5604 5608 5611 5614 5617 5621 5624 5627 5628 5628 5629 5630 5629 5629 5629 5629 5629 5628 5628 5627 5627 5628 5629 5630 5631 5632
5613 5621 5614 5608 5618 5617 5616 5617 5616 5612 5611 5606 5601 5598 5596 5593 5593 5594 5597 5600 5602 5604 5607 5611 5615 5617 5619 5618 5618 5618 5617 5616 5616 5615 5615 5614 5615 5615 5615 5615 5616 5618 5619 5619
5613 5607 5593 5608 5617 5615 5611 5610 5611 5608 5606 5603 5599 5596 5594 5593 5593 5592 5593 5593 5594 5597 5599 5604 5607 5609 5609 5609 5607 5605 5604 5603 5602 5602 5601 5600 5599 5599 5599 5601 5602 5603 5604 5606
5609 5604 5607 5612 5611 5611 5606 5607 5612 5608 5604 5601 5599 5594 5593 5592 5590 5589 5588 5587 5587 5589 5593 5596 5599 5600 5600 5599 5597 5595 5593 5592 5590 5589 5588 5586 5585 5584 5584 5585 5586 5588 5591 5592
5611 5598 5597 5608 5612 5612 5606 5603 5612 5608 5602 5599 5594 5591 5593 5591 5586 5583 5582 5581 5582 5584 5586 5587 5589 5590 5591 5589 5587 5585 5584 5582 5580 5579 5577 5575 5573 5571 5571 5572 5572 5575 5577 5579
5611 5605 5613 5615 5612 5607 5595 5598 5607 5606 5603 5598 5593 5592 5589 5587 5582 5579 5577 5576 5577 5578 5579 5579 5580 5581 5580 5578 5576 5575 5574 5572 5570 5568 5566 5564 5563 5562 5561 5562 5562 5563 5565 5568
5613 5607 5608 5615 5610 5604 5605 5606 5605 5604 5602 5596 5592 5588 5584 5581 5577 5574 5572 5571 5571 5571 5571 5572 5572 5572 5570 5568 5566 5565 5564 5562 5560 5558 5558 5556 5555 5554 5554 5553 5554 5554 5555 5557
5621 5619 5620 5619 5615 5614 5610 5606 5605 5603 5600 5594 5590 5585 5581 5577 5573 5570 5569 5567 5566 5566 5566 5565 5565 5564 5561 5558 5557 5556 5555 5553 5551 5550 5549 5548 5547 5546 5546 5545 5545 5545 5545 5546
5622 5628 5626 5622 5620 5616 5611 5609 5607 5603 5599 5594 5588 5584 5579 5574 5570 5566 5564 5562 5562 5561 5560 5559 5559 5557 5554 5552 5551 5550 5548 5547 5545 5544 5542 5541 5539 5538 5537 5536 5536 5536 5535 5537
5625 5630 5630 5627 5624 5620 5614 5611 5608 5604 5599 5594 5589 5583 5578 5572 5567 5564 5561 5559 5558 5556 5555 5554 5553 5551 5550 5549 5547 5546 5546 5544 5542 5540 5538 5534 5532 5530 5528 5526 5525 5524 5525 5525
5630 5638 5633 5633 5634 5628 5619 5613 5609 5604 5599 5595 5590 5584 5579 5574 5568 5564 5560 5557 5555 5554 5553 5551 5550 5548 5546 5545 5545 5544 5543 5541 5540 5538 5534 5532 5528 5525 5517 5517 5514 5512 5511 5511
5641 5645 5643 5641 5637 5633 5624 5618 5614 5608 5602 5596 5592 5588 5581 5575 5570 5565 5561 5557 5554 5552 5550 5549 5547 5545 5544 5543 5541 5540 5538 5537 5537 5535 5532 5528 5526 5523 5519 5511 5505 5503 5503 5502
5646 5643 5638 5638 5635 5633 5629 5623 5617 5611 5606 5600 5594 5589 5584 5578 5572 5567 5564 5560 5557 5553 5550 5547 5545 5544 5542 5540 5537 5535 5535 5531 5530 5529 5528 5527 5523 5520 5518 5515 5511 5507 5498 5494
5649 5644 5640 5641 5640 5635 5630 5624 5617 5611 5606 5601 5597 5590 5584 5579 5574 5570 5566 5563 5558 5554 5551 5548 5545 5543 5541 5539 5535 5532 5532 5531 5527 5525 5523 5521 5518 5516 5514 5509 5506 5503 5500 5491
5646 5644 5639 5637 5635 5633 5629 5624 5618 5613 5608 5602 5597 5591 5586 5581 5577 5573 5569 5565 5559 5555 5552 5549 5545 5543 5540 5536 5532 5529 5526 5518 5517 5519 5518 5515 5512 5509 5506 5502 5498 5496 5492 5489
5639 5638 5634 5632 5632 5631 5628 5625 5620 5616 5610 5604 5599 5594 5588 5583 5578 5574 5570 5566 5561 5557 5554 5549 5546 5543 5540 5535 5531 5531 5528 5520 5509 5511 5513 5509 5505 5501 5497 5493 5490 5487 5483 5476
5640 5640 5640 5637 5634 5631 5627 5625 5620 5615 5611 5606 5601 5595 5589 5583 5578 5575 5572 5568 5563 5557 5554 5551 5547 5543 5538 5535 5529 5529 5526 5523 5516 5513 5509 5504 5500 5496 5491 5488 5484 5479 5475 5469
5637 5637 5636 5637 5635 5632 5627 5623 5619 5615 5610 5606 5600 5595 5590 5585 5580 5576 5573 5569 5563 5558 5555 5553 5547 5541 5538 5534 5528 5523 5523 5520 5516 5511 5505 5497 5491 5491 5487 5482 5477 5472 5467 5461
5629 5631 5632 5632 5632 5629 5625 5621 5617 5612 5608 5603 5598 5594 5589 5585 5581 5577 5574 5569 5568 5565 5562 5556 5549 5541 5538 5535 5525 5526 5523 5519 5515 5511 5505 5500 5495 5489 5483 5477 5471 5465 5459 5452
5617 5620 5622 5624 5625 5624 5622 5619 5614 5608 5604 5601 5595 5591 5588 5585 5582 5578 5573 5571 5570 5566 5562 5556 5551 5546 5541 5537 5524 5527 5525 5520 5515 5511 5505 5499 5493 5486 5480 5472 5465 5459 5451 5445
5606 5607 5609 5613 5615 5616 5616 5614 5611 5607 5602 5598 5594 5591 5588 5584 5582 5578 5576 5574 5574 5567 5561 5559 5554 5549 5545 5536 5532 5528 5525 5521 5516 5511 5504 5497 5490 5484 5477 5469 5462 5454 5447 5439
5595 5596 5597 5600 5603 5605 5606 5606 5606 5604 5601 5598 5594 5590 5588 5586 5586 5582 5578 5577 5572 5566 5562 5562 5558 5549 5540 5535 5534 5531 5527 5522 5516 5510 5503 5496 5489 5482 5475 5467 5459 5452 5444 5436
5586 5587 5589 5591 5594 5595 5596 5598 5598 5598 5598 5596 5594 5591 5587 5586 5585 5586 5585 5581 5574 5567 5563 5561 5553 5544 5535 5537 5535 5532 5528 5522 5516 5510 5503 5496 5489 5482 5474 5466 5458 5451 5442 5434
5581 5582 5582 5583 5585 5589 5590 5590 5591 5591 5591 5592 5592 5590 5588 5586 5586 5587 5585 5582 5573 5564 5563 5559 5548 5540 5538 5538 5536 5532 5528 5523 5517 5510 5501 5494 5487 5480 5473 5465 5457 5449 5440 5433
5577 5578 5580 5580 5580 5581 5585 5587 5589 5591 5589 5589 5589 5588 5587 5585 5583 5583 5581 5578 5574 5564 5563 5562 5552 5540 5540 5540 5537 5532 5527 5521 5512 5504 5499 5492 5485 5478 5471 5464 5456 5448 5439 5431
5574 5575 5576 5577 5578 5578 5579 5580 5582 5585 5587 5587 5587 5586 5584 5583 5580 5578 5577 5575 5573 5565 5563 5562 5558 5550 5545 5541 5537 5532 5525 5518 5510 5502 5495 5488 5481 5475 5469 5461 5454 5446 5437 5429